Athens, OH

12:47 PM EST on November 22, 2019 (GMT -0500)
Ohio University

Weather History for KUNI - September, 2019

Change the Weather History Date:

Friday, September 27, 2019

  Actual Average (KPKB) Record (KPKB)
Temperature  
Mean Temperature 66 °F -  
Max Temperature 88 °F 71 °F 91 °F (1891)
Min Temperature 44 °F 52 °F 35 °F (1991)
Cooling Degree Days 1    
Growing Degree Days 16 (Base 50)    
Moisture  
Dew Point 51 °F    
Average Humidity 67    
Maximum Humidity 100    
Minimum Humidity 26    
Precipitation  
Precipitation 0.00 in - - ()
Sea Level Pressure  
Sea Level Pressure 29.99 in    
Wind  
Wind Speed 2 mph (South)    
Max Wind Speed 13 mph    
Max Gust Speed 20 mph    
Visibility 10 miles    
Events      
Averages and records for this station are not official NWS values.
T = Trace of Precipitation, MM = Missing Value Source: NWS Daily Summary

Daily Weather History Graph

Daily Weather History Graph

Search for Another Location

Airport or City:

Astronomy

Sep. 27, 2019 Rise Set
Actual Time 7:21 AM EDT 7:18 PM EDT
Civil Twilight 6:54 AM EDT 7:44 PM EDT
Nautical Twilight 6:23 AM EDT 8:15 PM EDT
Astronomical Twilight 5:51 AM EDT 8:47 PM EDT
Moon 5:42 AM EDT (9/27) 7:07 PM EDT (9/27)
Length of Visible Light 12h 50m
Length of Day
11h 57m
Waning Crescent, 2% of the Moon is Illuminated
Sep 27
Waning Crescent
Sep 28
New
Oct 5
First Quarter
Oct 13
Full
Oct 21
Last Quarter

Hourly Weather History & Observations

Time (EDT) Temp. Dew Point Humidity Pressure Visibility Wind Dir Wind Speed Gust Speed Precip Events Conditions
12:15 AM 50.2 °F 49.6 °F 98% 30.01 in 10.0 mi Calm Calm - N/A   Clear
12:35 AM 50.0 °F 49.5 °F 98% 30.02 in 10.0 mi Calm Calm - N/A   Clear
12:55 AM 49.5 °F 49.5 °F 100% 30.02 in 10.0 mi Calm Calm - N/A   Clear
1:15 AM 49.3 °F 49.3 °F 100% 30.02 in 10.0 mi Calm Calm - N/A   Clear
1:35 AM 49.1 °F 49.1 °F 100% 30.02 in 10.0 mi Calm Calm - N/A   Clear
1:55 AM 48.4 °F 48.4 °F 100% 30.02 in 10.0 mi Calm Calm - N/A   Clear
2:15 AM 48.0 °F 48.0 °F 100% 30.02 in - Calm Calm - N/A   Unknown
2:35 AM 47.7 °F 47.7 °F 100% 30.02 in 10.0 mi Calm Calm - N/A   Clear
2:55 AM 47.5 °F 47.5 °F 100% 30.02 in 10.0 mi Calm Calm - N/A   Clear
3:15 AM 47.3 °F 47.3 °F 100% 30.02 in 10.0 mi Calm Calm - N/A   Clear
3:55 AM 46.9 °F 46.9 °F 100% 30.02 in 10.0 mi Calm Calm - N/A   Clear
4:15 AM 45.7 °F 45.7 °F 100% 30.02 in 10.0 mi Calm Calm - N/A   Clear
4:35 AM 46.0 °F 46.0 °F 100% 30.02 in 10.0 mi Calm Calm - N/A   Clear
4:55 AM 45.9 °F 45.9 °F 100% 30.02 in 7.0 mi Calm Calm - N/A   Scattered Clouds
5:15 AM 45.9 °F 45.9 °F 100% 30.02 in 10.0 mi Calm Calm - N/A   Clear
5:35 AM 45.5 °F 45.5 °F 100% 30.03 in 10.0 mi Calm Calm - N/A   Clear
6:15 AM 45.0 °F 45.0 °F 100% 30.03 in 10.0 mi Calm Calm - N/A   Clear
6:35 AM 45.0 °F 45.0 °F 100% 30.04 in 10.0 mi Calm Calm - N/A   Clear
6:55 AM 45.0 °F 45.0 °F 100% 30.04 in 10.0 mi Calm Calm - N/A   Clear
7:15 AM 44.6 °F 44.6 °F 100% 30.04 in 10.0 mi Calm Calm - N/A   Clear
7:30 AM 44.8 °F 44.8 °F 100% 30.04 in 10.0 mi Calm Calm - N/A   Clear
7:55 AM 45.9 °F 45.9 °F 100% 30.05 in 10.0 mi Calm Calm - N/A   Clear
8:15 AM 47.5 °F 47.5 °F 100% 30.06 in 10.0 mi Calm Calm - N/A   Clear
8:35 AM 49.8 °F 49.8 °F 100% 30.06 in 10.0 mi Calm Calm - N/A   Clear
8:55 AM 52.2 °F 51.1 °F 96% 30.07 in 10.0 mi Calm Calm - N/A   Clear
9:15 AM 54.5 °F 51.8 °F 91% 30.07 in 10.0 mi Calm Calm - N/A   Clear
9:35 AM 57.2 °F 51.4 °F 81% 30.07 in 10.0 mi Calm Calm - N/A   Clear
9:55 AM 60.3 °F 51.8 °F 74% 30.07 in 10.0 mi Calm Calm - N/A   Clear
10:15 AM 63.1 °F 51.8 °F 66% 30.06 in 10.0 mi Calm Calm - N/A   Clear
10:35 AM 68.0 °F 52.5 °F 58% 30.06 in 10.0 mi Calm Calm - N/A   Clear
10:55 AM 71.6 °F 50.4 °F 47% 30.06 in 10.0 mi South 3.5 mph - N/A   Clear
11:15 AM 74.1 °F 50.9 °F 44% 30.04 in 10.0 mi Calm Calm - N/A   Clear
11:35 AM 76.6 °F 49.5 °F 38% 30.04 in 10.0 mi South 5.8 mph - N/A   Clear
11:55 AM 78.8 °F 48.4 °F 34% 30.03 in 10.0 mi SSE 9.2 mph - N/A   Clear
12:15 PM 79.9 °F 48.0 °F 33% 30.02 in 10.0 mi South 5.8 mph 16.1 mph N/A   Clear
12:35 PM 81.0 °F 46.9 °F 30% 30.01 in 10.0 mi SSE 11.5 mph 19.6 mph N/A   Clear
12:55 PM 81.7 °F 47.1 °F 30% 30.00 in 10.0 mi SSE 11.5 mph - N/A   Clear
1:15 PM 82.9 °F 47.3 °F 29% 29.99 in 10.0 mi South 12.7 mph 16.1 mph N/A   Clear
1:35 PM 83.7 °F 47.7 °F 28% 29.98 in 10.0 mi South 9.2 mph 16.1 mph N/A   Clear
1:55 PM 84.6 °F 49.8 °F 30% 29.97 in 10.0 mi SSE 8.1 mph - N/A   Clear
2:15 PM 85.6 °F 49.1 °F 28% 29.97 in 10.0 mi South 5.8 mph - N/A   Clear
2:35 PM 85.5 °F 49.1 °F 28% 29.96 in 10.0 mi SSE 5.8 mph - N/A   Clear
2:55 PM 85.8 °F 49.8 °F 29% 29.96 in 10.0 mi SSE 4.6 mph - N/A   Clear
3:15 PM 86.5 °F 51.3 °F 30% 29.95 in 10.0 mi SW 4.6 mph - N/A   Clear
3:35 PM 86.7 °F 51.4 °F 30% 29.95 in 10.0 mi SSW 4.6 mph - N/A   Clear
3:55 PM 86.7 °F 50.5 °F 29% 29.95 in 10.0 mi SW 6.9 mph - N/A   Clear
4:15 PM 87.6 °F 51.8 °F 29% 29.94 in 10.0 mi WSW 9.2 mph - N/A   Clear
4:35 PM 88.3 °F 51.4 °F 28% 29.94 in 10.0 mi SW 4.6 mph - N/A   Clear
4:55 PM 87.8 °F 50.4 °F 27% 29.94 in 10.0 mi South 3.5 mph - N/A   Clear
5:15 PM 88.3 °F 49.3 °F 26% 29.94 in 10.0 mi SSE 8.1 mph - N/A   Clear
5:35 PM 88.5 °F 49.8 °F 26% 29.93 in 10.0 mi SSE 8.1 mph - N/A   Clear
6:15 PM 86.9 °F 50.2 °F 28% 29.94 in 10.0 mi South 4.6 mph - N/A   Clear
6:35 PM 86.0 °F 50.0 °F 29% 29.93 in 10.0 mi South 4.6 mph - N/A   Clear
6:55 PM 84.0 °F 51.4 °F 32% 29.94 in 10.0 mi South 3.5 mph - N/A   Clear
7:15 PM 81.1 °F 52.9 °F 37% 29.94 in 10.0 mi SSE 3.5 mph - N/A   Clear
7:35 PM 75.4 °F 55.6 °F 50% 29.93 in 10.0 mi SSE 3.5 mph - N/A   Clear
7:55 PM 73.0 °F 55.6 °F 54% 29.94 in 10.0 mi Calm Calm - N/A   Clear
8:15 PM 70.9 °F 56.7 °F 61% 29.94 in 10.0 mi Calm Calm - N/A   Clear
8:35 PM 70.0 °F 58.5 °F 67% 29.94 in 10.0 mi Calm Calm - N/A   Clear
8:55 PM 68.0 °F 57.0 °F 68% 29.95 in 10.0 mi Calm Calm - N/A   Clear
9:15 PM 68.2 °F 57.0 °F 67% 29.94 in 10.0 mi Calm Calm - N/A   Clear
9:35 PM 66.9 °F 58.5 °F 74% 29.94 in 10.0 mi Calm Calm - N/A   Clear
9:55 PM 65.7 °F 57.4 °F 75% 29.94 in 10.0 mi Calm Calm - N/A   Clear
10:15 PM 64.9 °F 57.6 °F 77% 29.94 in 10.0 mi Calm Calm - N/A   Clear
10:35 PM 63.5 °F 57.7 °F 81% 29.94 in 10.0 mi Calm Calm - N/A   Clear
10:55 PM 63.3 °F 58.1 °F 83% 29.94 in 10.0 mi Calm Calm - N/A   Clear
11:15 PM 62.1 °F 58.3 °F 87% 29.94 in 10.0 mi Calm Calm - N/A   Scattered Clouds
11:35 PM 63.1 °F 58.3 °F 84% 29.94 in 10.0 mi Calm Calm - N/A   Scattered Clouds
11:55 PM 62.6 °F 58.1 °F 85% 29.94 in 10.0 mi Calm Calm - N/A   Clear